Regional Weather Roundup
Issued by NWS

Home | Current Version | Previous Version | Graphics & Text | Print | Product List | Glossary On
Versions: 1 2 3 4 5 6 7 8 9 10 11 12 13 14 15 16 17 18 19 20 21 22 23 24 25 26 27 28 29 30 31 32 33 34 35 36 37 38 39 40 41 42 43 44 45 46 47 48 49 50
882
ASUS45 KBOU 261410
RWRCO

WEATHER ROUNDUP FOR COLORADO
NATIONAL WEATHER SERVICE DENVER/BOULDER CO
800 AM MDT SAT MAY 26 2018

NOTE: "FAIR" INDICATES FEW OR NO CLOUDS BELOW 12000 FEET WITH NO
SIGNIFICANT WEATHER AND/OR OBSTRUCTIONS TO VISIBILITY.

COZ001>005-013-030-031-261500-
...NORTHWEST COLORADO...

CITY           SKY/WX    TMP DP  RH WIND       PRES   REMARKS
CRAIG          FAIR      52  37  56 W5        30.05S
HAYDEN         FAIR      54  30  40 E17       30.09R
MEEKER         FAIR      50  29  44 CALM      30.07S
RANGELY        FAIR      53  26  35 CALM      29.98R
RABBIT EARS PA FAIR      50  18  27 S7        30.35S
STEAMBOAT SPGS FAIR      45  33  63 CALM      30.11S
WALDEN         FAIR      50  28  43 CALM      30.21R
$$

COZ006>008-011-261500-
...WEST CENTRAL VALLEYS...

CITY           SKY/WX    TMP DP  RH WIND       PRES   REMARKS
GRAND JUNCTION FAIR      70  17  13 SE20      29.96S
MONTROSE       FAIR      63  18  17 SE8       30.08S
EAGLE          FAIR      47  23  38 W3        30.17S
RIFLE          FAIR      56  27  32 CALM      30.05R
DELTA          FAIR      66  18  16 NE6       30.04F
NUCLA          FAIR      64  12  13 E10       30.10F
$$

COZ017>023-064>068-261500-
...SOUTHWEST COLORADO...

CITY           SKY/WX    TMP DP  RH WIND       PRES   REMARKS
DURANGO        FAIR      49  21  33 E3        30.16S
CORTEZ         FAIR      55  21  26 SW5       30.09S
PAGOSA SPRINGS FAIR      53  13  20 E3        30.24S
TELLURIDE      FAIR      53  13  20 E6        30.28S
WOLF CREEK PAS FAIR      45   9  23 S6        30.52R
$$

COZ009-010-012-014-032>034-037-058>063-261500-
...CENTRAL COLORADO...

CITY           SKY/WX    TMP DP  RH WIND       PRES   REMARKS
ASPEN          FAIR      54  23  30 CALM      30.18S
BUENA VISTA    FAIR      53  22  29 N5        30.23S
COPPER MTN     FAIR      54   9  16 S5        30.46S
BERTHOUD PASS  FAIR      43  32  65 W15       30.49R
COTTONWOOD PAS FAIR      61  18  18 CALM      30.33S
GUNNISON       FAIR      44  18  35 VRB3      30.25F
GRANBY         FAIR      45  32  61 CALM      30.24S
KREMMLING      FAIR      50  32  50 CALM      30.22S
LEADVILLE      FAIR      45  23  42 CALM      30.32S
MONARCH PASS   FAIR      48   3  15 MISG      30.57R
SALIDA         FAIR      55  24  29 N12       30.27S
SUNLIGHT       FAIR      45  10  24 S8G17     30.38S
WILKERSON PASS FAIR      46  19  34 SW10G16   30.44R
$$

COZ069>075-261500-
...SAN LUIS VALLEY/SANGRE DE CRISTO MOUNTAINS...

CITY           SKY/WX    TMP DP  RH WIND       PRES   REMARKS
ALAMOSA        FAIR      52  23  32 SW3       30.21S
DEL NORTE      FAIR      54  13  20 SW5       30.24F
LA VETA PASS   FAIR      52  12  20 SW20G26   30.45S
SAGUACHE       NOT AVBL
$$

COZ035-036-038>040-261500-
...NORTHERN COLORADO FRONT RANGE...

CITY           SKY/WX    TMP DP  RH WIND       PRES   REMARKS
DENVER INTL AP FAIR      67  47  48 SW13      29.98R
AURORA         NOT AVBL
FRONT RANGE AP MOSUNNY   72  46  40 SW13      29.99R
ERIE MUNI ARPT FAIR      65  43  44 CALM      30.02R
BOULDER MUN AP FAIR      64  43  45 CALM      29.97S
CENTENNIAL     FAIR      69  41  36 W9        30.01R
BROOMFIELD     SUNNY     66  39  37 CALM      30.00R
FORT COLLINS   FAIR      62  47  57 NW3       29.97R
LONGMONT       FAIR      67  46  46 CALM      29.97S
$$

COZ041-046-047-076>085-087-088-261500-
...PIKES PEAK/PALMER DIVIDE AND SOUTHERN FOOTHILLS...

CITY           SKY/WX    TMP DP  RH WIND       PRES   REMARKS
COLO. SPRINGS  FAIR      66  47  50 NE3       30.06R
A. F. ACADEMY  FAIR      61  46  58 NW3       30.07S
SCHRIEVER AFB  NOT AVBL
CHEYENNE MTN   FAIR      67  43  42 CALM      30.04S
ELLICOTT         N/A    N/A N/A N/A S6        30.04R
FALCON         FAIR      65  44  45 CALM      30.10S
FORT CARSON    NOT AVBL
LIMON          FAIR      63  54  72 S6        30.00S
MONUMENT HILL  FAIR      68  37  32 SW7       30.11R
CANON CITY     SUNNY     75  34  22 W16G23    30.01R
WALSENBURG     FAIR      77  14   9 W16       30.05S
TRINIDAD       FAIR      66  31  27 W14       30.03S
$$

COZ042>045-048>051-090-091-261500-
...NORTHEAST COLORADO...

CITY           SKY/WX    TMP DP  RH WIND       PRES   REMARKS
GREELEY ARPT   FAIR      61  50  67 N5        29.95S
AKRON          FAIR      73  55  53 S12       29.94S
BURLINGTON     FAIR      73  61  65 S15       29.94S
WRAY           FAIR      72  63  73 CALM      29.91F
YUMA           FAIR      70  57  64 S10       29.93S
STERLING       FAIR      64  55  72 CALM      29.92S
HOLYOKE        FAIR      73  63  68 SW7       29.92S
FORT MORGAN    FAIR      68  51  53 E6        29.94S
$$

COZ086-089-092>099-261500-
...SOUTHEAST COLORADO...

CITY           SKY/WX    TMP DP  RH WIND       PRES   REMARKS
PUEBLO         FAIR      68  49  50 W3        29.97R
LA JUNTA       FAIR      69  46  43 SW12      29.94R
LAMAR          FAIR      73  59  61 MISG      29.90S
SPRINGFIELD      N/A     72  58  61 S9        29.96R
$$




USA.gov is the U.S. government's official web portal to all federal, state and local government web resources and services.